Back to catalog

USA 392

AliveNavigationVLEO
NORAD 60175·PAYLOAD·🇺🇸 United States

Launched Jun 29, 2024 from Vandenberg Space Force Base

Loading…

Next Passes (next 24 hours)

TLE

StaleSource: Mike McCants

Epoch: Aug 26, 2026, 00:31 UTC

1 60175U 24121T   26238.02199120 0.00000000  00000-0  00000-0 0    07
2 60175  70.0075 211.4752 0003000  16.6569 343.3431 14.96712900    08

Track USA 392 in real time with AllMySat

Download on the App Store